Regional Weather Roundup
Issued by NWS

Home | Current Version | Previous Version | Text Only | Print | Product List | Glossary On
Versions: 1 2 3 4 5 6 7 8 9 10 11 12 13 14 15 16 17 18 19 20 21 22 23 24 25 26 27 28 29 30 31 32 33 34 35 36 37 38 39 40 41 42 43 44 45 46 47 48 49 50
000
ASUS44 KBMX 041710
RWRAL

ALABAMA REGIONAL WEATHER ROUNDUP
NATIONAL WEATHER SERVICE BIRMINGHAM AL
1100 AM CST WED MAR 04 2015

NOTE: "FAIR" INDICATES FEW OR NO CLOUDS BELOW 12,000 FEET
WITH NO SIGNIFICANT WEATHER AND/OR OBSTRUCTIONS TO VISIBILITY.

THE REMARK "TC" DENOTES TEMPERATURE IN DEGREES CELSIUS.

ALZ001>011-014-016>018-020-041800-
NORTH ALABAMA

CITY           SKY/WX    TMP DP  RH WIND       PRES   REMARKS
MUSCLE SHOALS  CLOUDY    70  63  78 SW16G23   29.90F
HUNTSVILLE     PTSUNNY   72  64  76 SW16G23   29.92F
DECATUR        CLOUDY    67  63  87 S16       29.93F
HALEYVILLE       N/A     67  65  93 SW15G22   29.95F
GADSDEN        CLOUDY    66  61  82 S15       29.98F
$$

ALZ012-013-022-023-030>036-040>044-041800-
WEST CENTRAL ALABAMA

CITY           SKY/WX    TMP DP  RH WIND       PRES   REMARKS
TUSCALOOSA     CLOUDY    74  66  76 S10       29.98F
$$

ALZ015-024>027-033>036-040>044-041800-
CENTRAL ALABAMA

CITY           SKY/WX    TMP DP  RH WIND       PRES   REMARKS
BIRMINGHAM     CLOUDY    67  63  87 S17G25    30.01F
MONTGOMERY       N/A     79  63  57 MISG      30.03F
SHELBY CO ARPT CLOUDY    68  64  87 S8        30.02F
MAXWELL AFB    NOT AVBL
GREENVILLE     PTSUNNY   75  64  68 S10       30.05F
$$

ALZ019-021-028-029-037-038-045>048-041800-
EAST CENTRAL ALABAMA

CITY           SKY/WX    TMP DP  RH WIND       PRES   REMARKS
ANNISTON       CLOUDY    68  61  78 SW13      30.02F
ALEXANDER CITY PTSUNNY   74  62  65 S7        30.04F
AUBURN         MOSUNNY   72  57  60 S13       30.09F
$$

ALZ051>064-041800-
SOUTHWEST ALABAMA

CITY           SKY/WX    TMP DP  RH WIND       PRES   REMARKS
MOBILE         PTSUNNY   77  66  68 S14       30.04F
BROOKLEY FIELD PTSUNNY   71  66  84 S12       30.06F
EVERGREEN      PTSUNNY   78  65  63 S18G25    30.04F
$$

ALZ049-050-065>069-041800-
SOUTHEAST ALABAMA

CITY           SKY/WX    TMP DP  RH WIND       PRES   REMARKS
DOTHAN         CLOUDY    72  63  73 S10       30.13F
OZARK          NOT AVBL
TROY           CLOUDY    70  64  81 SW7       30.08S
EUFAULA        CLOUDY    68  62  81 S6        30.08F
$$


USA.gov is the U.S. government's official web portal to all federal, state and local government web resources and services.